Location: Guayaquil
(2.1667°S, 79.9000°W)
Time: 08:45:27
(UTC-05:00)

ISS - Visible Passes

Search period start: 12 December 2018 00:00
Search period end: 22 December 2018 00:00
Orbit: 401 x 408 km, 51.6° (Epoch: 12 December)

Date Brightness Start Highest point End Pass type
(mag) Time Alt. Az. Time Alt. Az. Time Alt. Az.
15 Dec -2.5 19:55:18 10° NW 19:58:22 39° SW 19:59:59 22° S visible
16 Dec -3.9 19:03:01 10° NNW 19:06:13 64° NE 19:09:26 10° SE visible
17 Dec -0.1 19:49:28 10° WSW 19:50:21 11° SW 19:51:14 10° SW visible
18 Dec -0.6 05:44:29 10° S 05:47:04 21° SE 05:49:38 10° ENE visible
18 Dec -1.3 18:55:19 10° WNW 18:58:08 27° SW 19:00:58 10° S visible
20 Dec -3.8 05:35:40 10° SW 05:38:57 90° W 05:42:14 10° NE visible
21 Dec -1.7 04:43:49 10° S 04:46:45 29° SE 04:49:39 10° ENE visible
